Time,TemperatureF,DewpointF,PressureIn,WindDirection,WindDirectionDegrees,WindSpeedMPH,WindSpeedGustMPH,Humidity,HourlyPrecipIn,Conditions,Clouds,dailyrainin,SoftwareType,DateUTC
2013-08-15 00:00:00,83.9,43.2,29.72,SW,217,6.0,10.0,24,0.00,,,0.00,Wunderground v.1.15,2013-08-15 07:00:00,
2013-08-15 00:10:00,83.4,42.8,29.73,SW,214,4.0,4.0,24,0.00,,,0.00,Wunderground v.1.15,2013-08-15 07:10:00,
2013-08-15 00:20:00,81.8,42.5,29.73,SW,214,2.0,10.0,25,0.00,,,0.00,Wunderground v.1.15,2013-08-15 07:20:00,
2013-08-15 00:30:00,81.9,42.6,29.73,SW,222,5.0,10.0,25,0.00,,,0.00,Wunderground v.1.15,2013-08-15 07:30:00,
2013-08-15 00:40:00,81.3,42.1,29.73,SW,222,3.0,3.0,25,0.00,,,0.00,Wunderground v.1.15,2013-08-15 07:40:00,
2013-08-15 00:50:00,79.6,42.7,29.73,SW,223,1.0,1.0,27,0.00,,,0.00,Wunderground v.1.15,2013-08-15 07:50:00,
2013-08-15 01:00:00,78.1,41.4,29.73,SW,223,0.0,10.0,27,0.00,,,0.00,Wunderground v.1.15,2013-08-15 08:00:00,
2013-08-15 01:10:00,79.3,41.4,29.73,SW,222,2.0,10.0,26,0.00,,,0.00,Wunderground v.1.15,2013-08-15 08:10:00,
2013-08-15 01:20:00,79.7,41.8,29.73,South,179,7.0,7.0,26,0.00,,,0.00,Wunderground v.1.15,2013-08-15 08:20:00,
2013-08-15 01:30:00,79.6,41.7,29.73,South,177,6.0,6.0,26,0.00,,,0.00,Wunderground v.1.15,2013-08-15 08:30:00,
2013-08-15 01:40:00,79.2,42.3,29.73,South,177,4.0,10.0,27,0.00,,,0.00,Wunderground v.1.15,2013-08-15 08:40:00,
2013-08-15 01:50:00,79.0,42.2,29.73,South,176,5.0,10.0,27,0.00,,,0.00,Wunderground v.1.15,2013-08-15 08:50:00,
2013-08-15 02:00:00,78.3,42.5,29.74,South,176,5.0,5.0,28,0.00,,,0.00,Wunderground v.1.15,2013-08-15 09:00:00,
2013-08-15 02:10:00,78.8,42.0,29.73,South,178,5.0,10.0,27,0.00,,,0.00,Wunderground v.1.15,2013-08-15 09:10:00,
2013-08-15 02:20:00,80.5,42.4,29.73,South,186,7.0,7.0,26,0.00,,,0.00,Wunderground v.1.15,2013-08-15 09:20:00,
2013-08-15 02:30:00,79.6,42.7,29.73,South,186,6.0,6.0,27,0.00,,,0.00,Wunderground v.1.15,2013-08-15 09:30:00,
2013-08-15 02:40:00,78.3,43.4,29.73,South,186,3.0,10.0,29,0.00,,,0.00,Wunderground v.1.15,2013-08-15 09:40:00,
2013-08-15 02:50:00,77.6,42.8,29.73,South,186,3.0,10.0,29,0.00,,,0.00,Wunderground v.1.15,2013-08-15 09:50:00,
2013-08-15 03:00:00,77.6,42.8,29.73,South,186,2.0,2.0,29,0.00,,,0.00,Wunderground v.1.15,2013-08-15 10:00:00,
2013-08-15 03:10:00,76.9,43.1,29.74,South,186,0.0,10.0,30,0.00,,,0.00,Wunderground v.1.15,2013-08-15 10:10:00,
2013-08-15 03:20:00,77.0,43.2,29.74,South,186,1.0,1.0,30,0.00,,,0.00,Wunderground v.1.15,2013-08-15 10:20:00,
2013-08-15 03:30:00,77.1,43.3,29.74,South,186,1.0,1.0,30,0.00,,,0.00,Wunderground v.1.15,2013-08-15 10:30:00,
2013-08-15 03:40:00,76.6,43.7,29.74,South,186,0.0,10.0,31,0.00,,,0.00,Wunderground v.1.15,2013-08-15 10:40:00,
2013-08-15 03:50:00,76.1,43.3,29.74,South,186,0.0,10.0,31,0.00,,,0.00,Wunderground v.1.15,2013-08-15 10:50:00,
2013-08-15 04:00:00,76.9,43.1,29.73,South,186,1.0,10.0,30,0.00,,,0.00,Wunderground v.1.15,2013-08-15 11:00:00,
2013-08-15 04:09:00,77.2,43.4,29.73,South,186,1.0,1.0,30,0.00,,,0.00,Wunderground v.1.15,2013-08-15 11:09:00,
2013-08-15 04:20:00,77.0,43.2,29.74,South,186,0.0,10.0,30,0.00,,,0.00,Wunderground v.1.15,2013-08-15 11:20:00,
2013-08-15 04:30:00,77.4,42.6,29.74,South,186,2.0,10.0,29,0.00,,,0.00,Wunderground v.1.15,2013-08-15 11:30:00,
2013-08-15 04:40:00,77.4,42.6,29.74,South,186,3.0,3.0,29,0.00,,,0.00,Wunderground v.1.15,2013-08-15 11:40:00,
2013-08-15 04:50:00,77.3,43.4,29.74,South,186,2.0,10.0,30,0.00,,,0.00,Wunderground v.1.15,2013-08-15 11:50:00,
2013-08-15 05:00:00,76.4,43.5,29.74,South,186,3.0,10.0,31,0.00,,,0.00,Wunderground v.1.15,2013-08-15 12:00:00,
2013-08-15 05:10:00,77.4,42.6,29.74,SSE,153,8.0,8.0,29,0.00,,,0.00,Wunderground v.1.15,2013-08-15 12:10:00,
2013-08-15 05:20:00,77.1,42.4,29.74,SSE,154,6.0,10.0,29,0.00,,,0.00,Wunderground v.1.15,2013-08-15 12:20:00,
2013-08-15 05:30:00,76.1,42.4,29.74,SSE,154,6.0,6.0,30,0.00,,,0.00,Wunderground v.1.15,2013-08-15 12:30:00,
2013-08-15 05:40:00,75.6,42.8,29.75,SSW,192,4.0,10.0,31,0.00,,,0.00,Wunderground v.1.15,2013-08-15 12:40:00,
2013-08-15 05:50:00,74.3,41.7,29.75,SSW,192,3.0,10.0,31,0.00,,,0.00,Wunderground v.1.15,2013-08-15 12:50:00,
2013-08-15 06:00:00,72.9,41.3,29.75,SSW,204,5.0,5.0,32,0.00,,,0.00,Wunderground v.1.15,2013-08-15 13:00:00,
2013-08-15 06:10:00,71.7,41.0,29.76,SSW,204,4.0,4.0,33,0.00,,,0.00,Wunderground v.1.15,2013-08-15 13:10:00,
2013-08-15 06:20:00,72.0,40.5,29.76,SSW,204,4.0,10.0,32,0.00,,,0.00,Wunderground v.1.15,2013-08-15 13:20:00,
2013-08-15 06:30:00,71.9,39.6,29.77,SSW,205,5.0,5.0,31,0.00,,,0.00,Wunderground v.1.15,2013-08-15 13:30:00,
2013-08-15 06:39:00,71.3,39.9,29.77,SSW,205,4.0,10.0,32,0.00,,,0.00,Wunderground v.1.15,2013-08-15 13:39:00,
2013-08-15 06:50:00,70.6,39.3,29.77,SSW,205,3.0,3.0,32,0.00,,,0.00,Wunderground v.1.15,2013-08-15 13:50:00,
2013-08-15 07:00:00,70.5,38.4,29.78,SSW,205,1.0,1.0,31,0.00,,,0.00,Wunderground v.1.15,2013-08-15 14:00:00,
2013-08-15 07:10:00,71.7,39.4,29.78,SSW,205,0.0,10.0,31,0.00,,,0.00,Wunderground v.1.15,2013-08-15 14:10:00,
2013-08-15 07:20:00,72.5,38.4,29.78,SSW,205,0.0,10.0,29,0.00,,,0.00,Wunderground v.1.15,2013-08-15 14:20:00,
2013-08-15 07:30:00,73.3,40.0,29.78,SSW,205,1.0,10.0,30,0.00,,,0.00,Wunderground v.1.15,2013-08-15 14:30:00,
2013-08-15 07:40:00,75.0,40.6,29.78,SSW,205,0.0,10.0,29,0.00,,,0.00,Wunderground v.1.15,2013-08-15 14:40:00,
2013-08-15 08:00:00,76.6,40.1,29.78,SSW,205,1.0,10.0,27,0.00,,,0.00,Wunderground v.1.15,2013-08-15 15:00:00,
2013-08-15 08:10:00,75.9,39.5,29.78,SSW,206,2.0,2.0,27,0.00,,,0.00,Wunderground v.1.15,2013-08-15 15:10:00,
2013-08-15 08:20:00,75.6,40.2,29.78,SSW,205,2.0,2.0,28,0.00,,,0.00,Wunderground v.1.15,2013-08-15 15:20:00,
2013-08-15 08:30:00,77.3,40.7,29.78,SSW,205,0.0,10.0,27,0.00,,,0.00,Wunderground v.1.15,2013-08-15 15:30:00,
2013-08-15 08:39:00,79.1,41.3,29.79,SSW,205,0.0,10.0,26,0.00,,,0.00,Wunderground v.1.15,2013-08-15 15:39:00,
2013-08-15 08:50:00,79.2,41.3,29.79,SSW,205,0.0,10.0,26,0.00,,,0.00,Wunderground v.1.15,2013-08-15 15:50:00,
2013-08-15 09:00:00,79.6,41.7,29.79,SSW,205,0.0,10.0,26,0.00,,,0.00,Wunderground v.1.15,2013-08-15 16:00:00,
2013-08-15 09:10:00,79.5,41.6,29.78,SW,214,3.0,3.0,26,0.00,,,0.00,Wunderground v.1.15,2013-08-15 16:10:00,
2013-08-15 09:20:00,80.4,42.4,29.78,SW,215,2.0,10.0,26,0.00,,,0.00,Wunderground v.1.15,2013-08-15 16:20:00,
2013-08-15 09:30:00,81.6,42.4,29.78,SW,215,2.0,10.0,25,0.00,,,0.00,Wunderground v.1.15,2013-08-15 16:30:00,
2013-08-15 09:40:00,82.6,43.2,29.79,SW,215,2.0,10.0,25,0.00,,,0.00,Wunderground v.1.15,2013-08-15 16:40:00,
2013-08-15 09:50:00,83.3,42.7,29.78,SW,215,2.0,2.0,24,0.00,,,0.00,Wunderground v.1.15,2013-08-15 16:50:00,
2013-08-15 10:00:00,84.2,43.5,29.78,SW,214,1.0,1.0,24,0.00,,,0.00,Wunderground v.1.15,2013-08-15 17:00:00,
2013-08-15 10:10:00,85.1,43.1,29.78,SW,214,1.0,10.0,23,0.00,,,0.00,Wunderground v.1.15,2013-08-15 17:10:00,
2013-08-15 10:30:00,86.4,44.2,29.78,WSW,246,2.0,2.0,23,0.00,,,0.00,Wunderground v.1.15,2013-08-15 17:30:00,
2013-08-15 10:40:00,87.4,43.9,29.78,WNW,295,2.0,10.0,22,0.00,,,0.00,Wunderground v.1.15,2013-08-15 17:40:00,
2013-08-15 10:50:00,88.0,44.4,29.78,NW,326,3.0,3.0,22,0.00,,,0.00,Wunderground v.1.15,2013-08-15 17:50:00,
2013-08-15 11:00:00,89.1,44.1,29.78,WNW,290,3.0,10.0,21,0.00,,,0.00,Wunderground v.1.15,2013-08-15 18:00:00,
2013-08-15 11:10:00,90.4,43.9,29.78,West,271,3.0,3.0,20,0.00,,,0.00,Wunderground v.1.15,2013-08-15 18:10:00,
2013-08-15 11:29:00,90.9,42.9,29.77,NNW,331,4.0,10.0,19,0.00,,,0.00,Wunderground v.1.15,2013-08-15 18:29:00,
2013-08-15 11:40:00,92.1,43.9,29.77,NW,307,5.0,5.0,19,0.00,,,0.00,Wunderground v.1.15,2013-08-15 18:40:00,
2013-08-15 11:50:00,92.8,43.1,29.76,WNW,296,6.0,6.0,18,0.00,,,0.00,Wunderground v.1.15,2013-08-15 18:50:00,
2013-08-15 12:00:00,93.7,42.3,29.76,West,275,5.0,10.0,17,0.00,,,0.00,Wunderground v.1.15,2013-08-15 19:00:00,
2013-08-15 12:09:00,94.9,41.7,29.76,West,273,4.0,10.0,16,0.00,,,0.00,Wunderground v.1.15,2013-08-15 19:09:00,
2013-08-15 12:20:00,95.3,42.0,29.75,West,277,6.0,6.0,16,0.00,,,0.00,Wunderground v.1.15,2013-08-15 19:20:00,
2013-08-15 12:40:00,96.4,41.2,29.75,West,264,8.0,8.0,15,0.00,,,0.00,Wunderground v.1.15,2013-08-15 19:40:00,
2013-08-15 12:50:00,97.4,42.0,29.74,WSW,249,6.0,10.0,15,0.00,,,0.00,Wunderground v.1.15,2013-08-15 19:50:00,
2013-08-15 13:00:00,98.1,42.6,29.74,WNW,302,5.0,10.0,15,0.00,,,0.00,Wunderground v.1.15,2013-08-15 20:00:00,
2013-08-15 13:40:00,99.5,45.4,29.72,South,171,9.0,9.0,16,0.00,,,0.00,Wunderground v.1.15,2013-08-15 20:40:00,
2013-08-15 13:50:00,99.3,45.2,29.72,WSW,250,12.0,12.0,16,0.00,,,0.00,Wunderground v.1.15,2013-08-15 20:50:00,
2013-08-15 14:00:00,99.6,45.4,29.72,SW,217,9.0,9.0,16,0.00,,,0.00,Wunderground v.1.15,2013-08-15 21:00:00,
2013-08-15 14:10:00,100.6,44.5,29.72,SW,235,8.0,11.0,15,0.00,,,0.00,Wunderground v.1.15,2013-08-15 21:10:00,
2013-08-15 14:20:00,99.8,45.6,29.71,SSE,154,16.0,16.0,16,0.00,,,0.00,Wunderground v.1.15,2013-08-15 21:20:00,
2013-08-15 14:30:00,100.4,46.1,29.70,South,178,13.0,16.0,16,0.00,,,0.00,Wunderground v.1.15,2013-08-15 21:30:00,
2013-08-15 14:39:00,100.5,46.2,29.70,SSW,200,10.0,10.0,16,0.00,,,0.00,Wunderground v.1.15,2013-08-15 21:39:00,
2013-08-15 14:50:00,100.8,46.4,29.69,WSW,253,13.0,13.0,16,0.00,,,0.00,Wunderground v.1.15,2013-08-15 21:50:00,
2013-08-15 15:10:00,101.5,47.0,29.69,South,188,12.0,19.0,16,0.00,,,0.00,Wunderground v.1.15,2013-08-15 22:10:00,
2013-08-15 15:20:00,101.5,47.0,29.68,SW,215,13.0,13.0,16,0.00,,,0.00,Wunderground v.1.15,2013-08-15 22:20:00,
2013-08-15 15:30:00,102.1,47.4,29.68,SSW,202,14.0,14.0,16,0.00,,,0.00,Wunderground v.1.15,2013-08-15 22:30:00,
2013-08-15 15:40:00,101.7,47.1,29.67,WSW,245,12.0,12.0,16,0.00,,,0.00,Wunderground v.1.15,2013-08-15 22:40:00,
2013-08-15 15:50:00,102.3,45.9,29.67,SSW,212,13.0,13.0,15,0.00,,,0.00,Wunderground v.1.15,2013-08-15 22:50:00,
2013-08-15 16:00:00,102.1,45.7,29.67,South,188,14.0,14.0,15,0.00,,,0.00,Wunderground v.1.15,2013-08-15 23:00:00,
2013-08-15 16:10:00,102.7,47.9,29.67,SSE,165,13.0,13.0,16,0.00,,,0.00,Wunderground v.1.15,2013-08-15 23:10:00,
2013-08-15 16:20:00,101.9,47.3,29.66,South,187,13.0,13.0,16,0.00,,,0.00,Wunderground v.1.15,2013-08-15 23:20:00,
2013-08-15 16:30:00,102.1,45.7,29.66,West,281,13.0,13.0,15,0.00,,,0.00,Wunderground v.1.15,2013-08-15 23:30:00,
2013-08-15 16:40:00,102.6,46.1,29.67,SSW,200,13.0,17.0,15,0.00,,,0.00,Wunderground v.1.15,2013-08-15 23:40:00,
2013-08-15 16:50:00,102.3,45.9,29.66,SW,220,11.0,13.0,15,0.00,,,0.00,Wunderground v.1.15,2013-08-15 23:50:00,
2013-08-15 17:10:00,102.0,47.4,29.67,WSW,237,17.0,19.0,16,0.00,,,0.00,Wunderground v.1.15,2013-08-16 00:10:00,
2013-08-15 17:20:00,102.6,47.8,29.66,WSW,240,16.0,16.0,16,0.00,,,0.00,Wunderground v.1.15,2013-08-16 00:20:00,
2013-08-15 17:30:00,101.8,48.8,29.67,SSW,209,20.0,25.0,17,0.00,,,0.00,Wunderground v.1.15,2013-08-16 00:30:00,
2013-08-15 17:40:00,101.4,48.5,29.66,SSW,197,22.0,24.0,17,0.00,,,0.00,Wunderground v.1.15,2013-08-16 00:40:00,
2013-08-15 17:50:00,101.1,48.3,29.66,SW,221,20.0,20.0,17,0.00,,,0.00,Wunderground v.1.15,2013-08-16 00:50:00,
2013-08-15 18:00:00,100.8,49.5,29.67,SW,233,20.0,20.0,18,0.00,,,0.00,Wunderground v.1.15,2013-08-16 01:00:00,
2013-08-15 18:10:00,100.5,49.3,29.66,SSW,212,20.0,20.0,18,0.00,,,0.00,Wunderground v.1.15,2013-08-16 01:10:00,
2013-08-15 18:20:00,100.3,49.1,29.66,SW,217,19.0,20.0,18,0.00,,,0.00,Wunderground v.1.15,2013-08-16 01:20:00,
2013-08-15 18:29:00,100.4,47.7,29.66,WSW,249,19.0,19.0,17,0.00,,,0.00,Wunderground v.1.15,2013-08-16 01:29:00,
2013-08-15 18:40:00,99.8,48.7,29.67,WSW,252,17.0,21.0,18,0.00,,,0.00,Wunderground v.1.15,2013-08-16 01:40:00,
2013-08-15 18:50:00,99.0,48.1,29.67,WSW,250,17.0,18.0,18,0.00,,,0.00,Wunderground v.1.15,2013-08-16 01:50:00,
2013-08-15 19:00:00,98.3,47.5,29.67,WSW,248,16.0,16.0,18,0.00,,,0.00,Wunderground v.1.15,2013-08-16 02:00:00,
2013-08-15 19:10:00,97.8,47.1,29.67,West,259,15.0,19.0,18,0.00,,,0.00,Wunderground v.1.15,2013-08-16 02:10:00,
2013-08-15 19:20:00,96.9,47.8,29.68,West,263,16.0,18.0,19,0.00,,,0.00,Wunderground v.1.15,2013-08-16 02:20:00,
2013-08-15 19:30:00,96.1,47.2,29.68,West,263,16.0,16.0,19,0.00,,,0.00,Wunderground v.1.15,2013-08-16 02:30:00,
2013-08-15 19:50:00,94.6,47.3,29.69,WSW,244,15.0,15.0,20,0.00,,,0.00,Wunderground v.1.15,2013-08-16 02:50:00,
2013-08-15 20:00:00,93.8,46.7,29.70,SW,234,15.0,15.0,20,0.00,,,0.00,Wunderground v.1.15,2013-08-16 03:00:00,
2013-08-15 20:09:00,93.0,46.0,29.70,SSW,213,12.0,12.0,20,0.00,,,0.00,Wunderground v.1.15,2013-08-16 03:09:00,
2013-08-15 20:20:00,92.0,46.5,29.71,South,190,11.0,11.0,21,0.00,,,0.00,Wunderground v.1.15,2013-08-16 03:20:00,
2013-08-15 20:30:00,91.5,46.1,29.71,SSW,205,12.0,14.0,21,0.00,,,0.00,Wunderground v.1.15,2013-08-16 03:30:00,
2013-08-15 20:40:00,91.2,45.8,29.72,SSW,203,14.0,14.0,21,0.00,,,0.00,Wunderground v.1.15,2013-08-16 03:40:00,
2013-08-15 20:50:00,90.4,46.4,29.72,SSW,207,15.0,15.0,22,0.00,,,0.00,Wunderground v.1.15,2013-08-16 03:50:00,
2013-08-15 21:00:00,89.7,45.8,29.72,SSW,211,13.0,16.0,22,0.00,,,0.00,Wunderground v.1.15,2013-08-16 04:00:00,
2013-08-15 21:10:00,89.4,45.5,29.73,SW,214,13.0,13.0,22,0.00,,,0.00,Wunderground v.1.15,2013-08-16 04:10:00,
2013-08-15 21:20:00,89.4,45.5,29.73,SW,223,12.0,12.0,22,0.00,,,0.00,Wunderground v.1.15,2013-08-16 04:20:00,
2013-08-15 21:30:00,88.7,45.0,29.73,SW,217,8.0,8.0,22,0.00,,,0.00,Wunderground v.1.15,2013-08-16 04:30:00,
2013-08-15 21:40:00,87.1,43.6,29.73,SW,217,5.0,10.0,22,0.00,,,0.00,Wunderground v.1.15,2013-08-16 04:40:00,
2013-08-15 21:50:00,87.5,44.0,29.74,SSW,196,7.0,7.0,22,0.00,,,0.00,Wunderground v.1.15,2013-08-16 04:50:00,
2013-08-15 22:00:00,87.1,44.8,29.74,SW,218,4.0,10.0,23,0.00,,,0.00,Wunderground v.1.15,2013-08-16 05:00:00,
2013-08-15 22:09:00,87.1,44.8,29.75,SW,227,4.0,10.0,23,0.00,,,0.00,Wunderground v.1.15,2013-08-16 05:09:00,
2013-08-15 22:20:00,86.7,45.6,29.74,SSW,200,8.0,13.0,24,0.00,,,0.00,Wunderground v.1.15,2013-08-16 05:20:00,
2013-08-15 22:30:00,86.9,45.8,29.74,SSW,211,12.0,12.0,24,0.00,,,0.00,Wunderground v.1.15,2013-08-16 05:30:00,
2013-08-15 22:39:00,86.6,45.5,29.74,SSW,211,12.0,12.0,24,0.00,,,0.00,Wunderground v.1.15,2013-08-16 05:39:00,
2013-08-15 22:50:00,86.3,46.3,29.74,SSW,207,10.0,10.0,25,0.00,,,0.00,Wunderground v.1.15,2013-08-16 05:50:00,
2013-08-15 23:00:00,85.9,44.9,29.75,SSW,194,10.0,10.0,24,0.00,,,0.00,Wunderground v.1.15,2013-08-16 06:00:00,
2013-08-15 23:10:00,85.9,44.9,29.75,South,175,11.0,12.0,24,0.00,,,0.00,Wunderground v.1.15,2013-08-16 06:10:00,
2013-08-15 23:20:00,85.9,44.9,29.75,South,177,13.0,13.0,24,0.00,,,0.00,Wunderground v.1.15,2013-08-16 06:20:00,
2013-08-15 23:30:00,85.4,45.6,29.75,South,191,12.0,13.0,25,0.00,,,0.00,Wunderground v.1.15,2013-08-16 06:30:00,
2013-08-15 23:40:00,85.2,44.3,29.75,South,178,12.0,12.0,24,0.00,,,0.00,Wunderground v.1.15,2013-08-16 06:40:00,
2013-08-15 23:50:00,84.6,43.8,29.75,SSE,164,6.0,6.0,24,0.00,,,0.00,Wunderground v.1.15,2013-08-16 06:50:00,
2013-08-15 23:59:00,84.6,43.8,29.75,South,180,6.0,6.0,24,0.00,,,0.00,Wunderground v.1.15,2013-08-16 06:59:00,